Header for Extended Forecast Station List Page

Search by: ID | Name | Date | Parm | Value | Avg | % Avg
Sort by: ID | Name | Date | Parm | Value | Avg | % Avg

Enter search or view all records.

Click on id for station plot
#IDNameDateParmValueAvg% Avg
0LYDM8KOOTENAI-LIBBY DAM05-23-2016INFLOW (KAF)3662509772
1LEOI1KOOTENAI-AT LEONIA05-23-2016DISCHARGE (KAF)2677452759
2BFEI1KOOTENAI-AT BONNERS FERRY05-23-2016STAGE (FT)MMM
3FCFM8NF FLATHEAD-NEAR COLUMBIA FALLS05-23-2016DISCHARGE (KAF)1022120085
4WGCM8MF FLATHEAD-NEAR WEST GLACIER05-23-2016DISCHARGE (KAF)1076114994
5HHWM8SF FLATHEAD-HUNGRY HORSE DAM05-23-2016INFLOW (KAF)1133129088
6CFMM8FLATHEAD-AT COLUMBIA FALLS05-23-2016DISCHARGE (KAF)32013107103
7DLGM8CLARK FORK-AT DEER LODGE05-23-2016DISCHARGE (KAF)435875
8DRMM8CLARK FORK-NR DRUMMOND05-23-2016DISCHARGE (KAF)115MM
9RCCM8ROCK CREEK-NEAR CLINTON05-23-2016DISCHARGE (KAF)14620770
10BONM8BLACKFOOT-NEAR BONNER05-23-2016DISCHARGE (KAF)36357963
11ABOM8CLARK FORK-ABOVE MISSOULA05-23-2016DISCHARGE (KAF)651104662
12BITM8BITTERROOT-NEAR MISSOULA05-23-2016DISCHARGE (KAF)55591761
13BELM8CLARK FORK-BELOW MISSOULA05-23-2016DISCHARGE (KAF)1207200260
14STRM8ST. REGIS-NEAR ST. REGIS05-23-2016DISCHARGE (KAF)7612362
15SRGM8CLARK FORK-AT ST REGIS05-23-2016DISCHARGE (KAF)1600261561
16KERM8FLATHEAD-KERR DAM05-23-2016INFLOW (KAF)3738385897
17NOXM8CLARK FORK-NOXON RAPIDS DAM05-23-2016INFLOW (KAF)5545668383
18CABI1CLARK FORK-CABINET GORGE DAM05-23-2016INFLOW (KAF)6079713385
19PRTI1PRIEST-NEAR PRIEST RIVER05-23-2016DISCHARGE (KAF)37545982
20ALFW1PEND OREILLE-ALBENI FALLS DAM05-23-2016INFLOW (KAF)6637796383
21HOPI1PEND OREILLE-PEND OREILLE LAKE NR HOPE05-23-2016LAKE ELEVATION (FT)MMM
22COEI1COEUR D ALENE-COEUR D ALENE LAKE05-23-2016INFLOW (KAF)59695562
23SPOW1SPOKANE-AT SPOKANE05-23-2016DISCHARGE (KAF)722MM
24LLKW1SPOKANE-AT LONGLAKE05-23-2016INFLOW (KAF)882142862
25SATI1ST MARIES-NEAR SANTA05-23-2016DISCHARGE (KAF)214745
26SJMI1ST JOE-AT ST MARIES05-23-2016STAGE (FT)MMM
27CIBW1COLUMBIA-AT INTL BOUNDARY05-23-2016DISCHARGE (KAF)26899MM
28LAUW1KETTLE-AT LAURIER05-23-2016DISCHARGE (KAF)923101191
29GCDW1COLUMBIA-GRAND COULEE DAM05-23-2016INFLOW (KAF)287773812675
30CHJW1COLUMBIA-CHIEF JOSEPH DAM05-23-2016INFLOW (KAF)259172879290
31TONW1OKANOGAN-NEAR TONASKET05-23-2016DISCHARGE (KAF)713110265
32PATW1METHOW-NEAR PATEROS05-23-2016DISCHARGE (KAF)36261759
33WELW1COLUMBIA-WELLS DAM05-23-2016INFLOW (KAF)270273082988
34CHDW1CHELAN-LAKE CHELAN DAM05-23-2016INFLOW (KAF)45578958
35RRHW1COLUMBIA-ROCKY REACH DAM05-23-2016INFLOW (KAF)275583148188
36ARDW1ENTIAT-NEAR ARDENVOIR05-23-2016DISCHARGE (KAF)9715363
37PESW1WENATCHEE-AT PESHASTIN05-23-2016DISCHARGE (KAF)603101959
38WANW1COLUMBIA-WANAPUM DAM05-23-2016INFLOW (KAF)281703798974
39PRWW1COLUMBIA-PRIEST RAPIDS DAM05-23-2016INFLOW (KAF)281713883373
40KEDW1YAKIMA-KEECHELUS LAKE05-23-2016INFLOW (KAF)336054
41KADW1KACHESS-KACHESS DAM05-23-2016INFLOW (KAF)255347
42EASW1YAKIMA-AT EASTON05-23-2016DISCHARGE (KAF)9684114
43CLUW1CLE ELUM-CLE ELUM LAKE05-23-2016INFLOW (KAF)10124341
44TNAW1TEANAWAY-BELOW FORKS05-23-2016DISCHARGE (KAF)164041
45UMTW1YAKIMA-AT UMTANUM05-23-2016DISCHARGE (KAF)76778498
46BUDW1BUMPING-BUMPING LAKE DAM05-23-2016INFLOW (KAF)307839
47CLFW1NACHES-NEAR CLIFFDEL05-23-2016DISCHARGE (KAF)12423154
48RILW1TIETON-RIMROCK LAKE NEAR RIMROCK05-23-2016INFLOW (KAF)10714673
49NACW1NACHES-NEAR NACHES05-23-2016DISCHARGE (KAF)29534386
50PARW1YAKIMA-NEAR PARKER05-23-2016DISCHARGE (KAF)253246103
51KIOW1YAKIMA-AT KIONA05-23-2016DISCHARGE (KAF)56157997
52IPDI1HENRYS FORK-ISLAND PARK DAM05-23-2016INFLOW (KAF)11518462
53CHEI1FALL RIVER-NEAR CHESTER05-23-2016DISCHARGE (KAF)10021447
54ANTI1HENRYS FORK-AT ST. ANTHONY05-23-2016DISCHARGE (KAF)32246270
55TEAI1TETON-NEAR ST. ANTHONY05-23-2016DISCHARGE (KAF)23330975
56REXI1HENRYS FORK-AT REXBURG05-23-2016DISCHARGE (KAF)32354459
57JLKW4SNAKE-JACKSON LAKE AT DAM05-23-2016INFLOW (KAF)34564953
58JKSW4SNAKE-NEAR JACKSON05-23-2016DISCHARGE (KAF)1291162280
59ALPW4SNAKE-NEAR ALPINE05-23-2016DISCHARGE (KAF)1545200177
60PLDI1SF SNAKE-PALISADES DAM05-23-2016INFLOW (KAF)2070271676
61HEII1SNAKE-NEAR HEISE05-23-2016DISCHARGE (KAF)2612289090
62RIDI1WILLOW CREEK-RIRIE DAM05-23-2016INFLOW (KAF)121482
63SIFI1SNAKE-AB EAGLE ROCK NR IDAHO FALLS05-23-2016DISCHARGE (KAF)1593211975
64SHYI1SNAKE-NEAR SHELLEY05-23-2016DISCHARGE (KAF)1381179177
65SNAI1SNAKE-AT BLACKFOOT05-23-2016DISCHARGE (KAF)806126364
66BFTI1SNAKE-NEAR BLACKFOOT05-23-2016DISCHARGE (KAF)768115267
67PIHI1PORTNEUF-AT POCATELLO05-23-2016DISCHARGE (KAF)173351
68AFRI1SNAKE-AMERICAN FALLS RESERVOIR05-23-2016INFLOW (KAF)1301177073
69MILI1SNAKE-AT MILNER05-23-2016DISCHARGE (KAF)202115175
70HOTI1BRUNEAU-NEAR HOT SPRINGS05-23-2016DISCHARGE (KAF)859590
71SWAI1SNAKE-BELOW SWAN FALLS05-23-2016DISCHARGE (KAF)1749199788
72HWRI1BIG LOST-AT HOWELL RANCH NEAR CHILLY05-23-2016DISCHARGE (KAF)9414167
73MACI1BIG LOST-MACKAY RESERVOIR NEAR MACKAY05-23-2016INFLOW (KAF)9113966
74HALI1BIG WOOD-AT HAILEY05-23-2016DISCHARGE (KAF)11517865
75MAGI1BIG WOOD-MAGIC DAM05-23-2016INFLOW (KAF)7112656
76LWRI1LITTLE WOOD-LITTLE WOOD DAM05-23-2016INFLOW (KAF)274362
77OWYO3OWYHEE-OWYHEE DAM05-23-2016INFLOW (KAF)919397
78ARAI1SF BOISE-ANDERSON RANCH DAM05-23-2016INFLOW (KAF)16429256
79LUCI1BOISE-LUCKY PEAK DAM05-23-2016INFLOW (KAF)850MM
80BIGI1BOISE-AT GLENWOOD BRIDGE05-23-2016DISCHARGE (KAF)423321132
81PARI1BOISE-NEAR PARMA05-23-2016DISCHARGE (KAF)428288148
82WRMO3MALHEUR-WARM SPRINGS DAM05-23-2016INFLOW (KAF)5684
83BERO3MALHEUR-AGENCY VALLEY DAM05-23-2016INFLOW (KAF)121490
84BULO3BULLY CREEK-BULLY CREEK DAM05-23-2016INFLOW (KAF)M0M
85VALO3MALHEUR-NEAR VALE05-23-2016DISCHARGE (KAF)1324
86CSDI1NF PAYETTE-CASCADE DAM05-23-2016INFLOW (KAF)17529559
87DEDI1DEADWOOD-NEAR LOWMAN05-23-2016INFLOW (KAF)589363
88EMMI1PAYETTE-NEAR EMMETT05-23-2016DISCHARGE (KAF)62884574
89WSRI1WEISER-NEAR WEISER05-23-2016DISCHARGE (KAF)7815550
90WEII1SNAKE-AT WEISER05-23-2016DISCHARGE (KAF)3123348890
91BRNI1SNAKE-BROWNLEE DAM05-23-2016INFLOW (KAF)3346369191
92WHBI1SALMON-AT WHITEBIRD05-23-2016DISCHARGE (KAF)2989442168
93TRYO3GRANDE RONDE-TROY05-23-2016DISCHARGE (KAF)27164442
94ANAW1SNAKE-NEAR ANATONE05-23-2016DISCHARGE (KAF)6946920875
95ORFI1CLEARWATER-AT OROFINO05-23-2016DISCHARGE (KAF)1714264965
96DWRI1NF CLEARWATER-DWORSHAK DAM05-23-2016INFLOW (KAF)887139464
97SPDI1CLEARWATER-AT SPALDING05-23-2016DISCHARGE (KAF)3621395592
98LGDW1SNAKE-LOWER GRANITE DAM05-23-2016INFLOW (KAF)105671327180
99LGSW1SNAKE-LITTLE GOOSE DAM05-23-2016INFLOW (KAF)105641327480
100LMNW1SNAKE-LOWER MONUMENTAL DAM05-23-2016INFLOW (KAF)105631330679
101IHDW1SNAKE-ICE HARBOR DAM05-23-2016INFLOW (KAF)105591326980
102TCHW1WALLA WALLA-NEAR TOUCHET05-23-2016DISCHARGE (KAF)122254
103MCDW1COLUMBIA-MCNARY DAM05-23-2016INFLOW (KAF)394265325074
104GIBO3UMATILLA-NEAR GIBBON05-23-2016DISCHARGE (KAF)142359
105PDTO3UMATILLA-AT PENDLETON05-23-2016DISCHARGE (KAF)133242
106MYKO3MCKAY CREEK-NEAR PILOT ROCK05-23-2016DISCHARGE (KAF)1259
107UMAO3UMATILLA-NEAR UMATILLA05-23-2016DISCHARGE (KAF)255532
108MONO3NF JOHN DAY-AT MONUMENT05-23-2016DISCHARGE (KAF)5718631
109SERO3JOHN DAY-AT SERVICE CK05-23-2016DISCHARGE (KAF)10425940
110JDAO3COLUMBIA-JOHN DAY DAM05-23-2016INFLOW (KAF)401815428074
111MODO3DESCHUTES-AT MOODY NR BIGGS05-23-2016DISCHARGE (KAF)1062114193
112TDAO3COLUMBIA-THE DALLES DAM05-23-2016INFLOW (KAF)404744883583
113PITW1KLICKITAT-NEAR PITT05-23-2016DISCHARGE (KAF)24930482
114HODO3HOOD-NEAR TUCKER BRIDGE05-23-2016DISCHARGE (KAF)9412774
115UNDW1WHITE SALMON-NEAR UNDERWOOD05-23-2016DISCHARGE (KAF)20622094
116BONO3COLUMBIA-BONNEVILLE DAM05-23-2016INFLOW (KAF)41047MM